Simultaneous Nadir Overpasses (SNOs) Predictions

Prediction of SNOs between NOAA-20 and METOP-B Satellite Orbit:

Table of predicted SNOs for the next 14.0 days since TLE Epoch: 11/7/2020
Index Date (NOAA-20) Time (NOAA-20) Lat,Lon (NOAA-20) SZA (NOAA-20 ) Date (METOP-B) Time (METOP-B) Lat,Lon (METOP-B) SZA (METOP-B ) Distance(km) Time Diff (sec)
1 11/08/2020 03:48:10 73.41, 113.26 90.08 11/08/2020 03:49:17 73.35, 115.86 89.96 83.13 67
2 11/08/2020 04:38:52 -73.31, -79.20 90.02 11/08/2020 04:40:01 -73.25, -77.03 90.13 69.68 69
3 11/08/2020 05:29:34 73.11, 88.54 89.79 11/08/2020 05:30:44 73.08, 89.93 89.72 44.83 70
4 11/08/2020 06:20:16 -73.01,-103.92 90.32 11/08/2020 06:21:28 -72.98,-102.96 90.37 31.52 72
5 11/08/2020 07:10:58 72.81, 63.81 89.49 11/08/2020 07:12:11 72.81, 64.01 89.48 6.51 73
6 11/08/2020 08:01:41 -72.76,-128.77 90.56 11/08/2020 08:02:54 -72.76,-128.76 90.56 0.26 73
7 11/08/2020 08:52:27 72.76, 38.53 89.46 11/08/2020 08:53:34 72.74, 38.52 89.43 3.11 67
8 11/08/2020 09:43:11 -72.76,-154.15 90.53 11/08/2020 09:44:16 -72.74,-154.14 90.56 2.68 65
9 11/08/2020 10:33:57 72.77, 13.15 89.49 11/08/2020 10:34:55 72.77, 13.25 89.48 3.05 58
10 11/08/2020 11:24:40 -72.72,-179.43 90.56 11/08/2020 11:25:38 -72.72,-179.52 90.56 3.21 58
11 11/08/2020 12:15:26 72.72, -12.12 89.46 11/08/2020 12:16:17 72.75, -12.14 89.48 3.11 51
12 11/08/2020 13:06:10 -72.72, 155.19 90.54 11/08/2020 13:06:59 -72.75, 155.20 90.51 3.49 49
13 11/08/2020 13:56:56 72.72, -37.50 89.48 11/08/2020 13:57:39 72.73, -37.52 89.48 0.64 43
14 11/08/2020 14:47:40 -72.72, 129.81 90.51 11/08/2020 14:48:21 -72.73, 129.82 90.51 0.97 41
15 11/08/2020 15:38:26 72.73, -62.89 89.50 11/08/2020 15:39:01 72.71, -62.90 89.48 2.08 35
16 11/08/2020 16:29:10 -72.73, 104.43 90.49 11/08/2020 16:29:43 -72.71, 104.44 90.51 1.67 33
17 11/08/2020 17:19:56 72.73, -88.27 89.53 11/08/2020 17:20:22 72.74, -88.17 89.53 3.30 26
18 11/08/2020 18:10:39 -72.68, 79.15 90.52 11/08/2020 18:11:05 -72.69, 79.06 90.51 3.41 26
19 11/08/2020 19:01:26 72.73,-113.65 89.55 11/08/2020 19:01:44 72.72,-113.55 89.53 3.51 18
20 11/08/2020 19:52:09 -72.68, 53.77 90.50 11/08/2020 19:52:27 -72.67, 53.68 90.51 3.26 18
21 11/08/2020 20:42:55 72.68,-138.93 89.52 11/08/2020 20:43:06 72.70,-138.93 89.53 1.57 11
22 11/08/2020 21:33:39 -72.69, 28.39 90.47 11/08/2020 21:33:48 -72.70, 28.40 90.46 2.00 9
23 11/08/2020 22:24:25 72.69,-164.31 89.54 11/08/2020 22:24:28 72.68,-164.31 89.54 1.06 3
24 11/08/2020 23:15:09 -72.69, 3.01 90.45 11/08/2020 23:15:10 -72.68, 3.02 90.46 0.75 1
25 11/09/2020 00:05:55 72.69, 170.31 89.57 11/09/2020 00:05:50 72.66, 170.31 89.54 3.61 5
26 11/09/2020 00:56:39 -72.69, -22.37 90.43 11/09/2020 00:56:32 -72.66, -22.36 90.45 3.20 7
27 11/09/2020 01:47:25 72.69, 144.93 89.59 11/09/2020 01:47:11 72.69, 145.03 89.59 3.31 14
28 11/09/2020 02:38:08 -72.64, -47.65 90.46 11/09/2020 02:37:54 -72.64, -47.74 90.45 2.95 14
29 11/09/2020 03:28:54 72.65, 119.65 89.56 11/09/2020 03:28:33 72.67, 119.65 89.59 2.57 21
30 11/09/2020 04:19:38 -72.65, -73.03 90.43 11/09/2020 04:19:15 -72.67, -73.02 90.40 3.03 23
31 11/09/2020 05:10:23 72.65, 94.27 89.59 11/09/2020 05:09:54 72.65, 94.27 89.59 0.13 29
32 11/09/2020 06:01:07 -72.65, -98.41 90.41 11/09/2020 06:00:36 -72.66, -98.40 90.40 0.70 31
33 11/09/2020 06:51:53 72.65, 68.89 89.61 11/09/2020 06:51:16 72.63, 68.89 89.59 2.59 37
34 11/09/2020 07:42:37 -72.65,-123.79 90.39 11/09/2020 07:41:58 -72.64,-123.78 90.40 2.22 39
35 11/09/2020 08:33:23 72.66, 43.51 89.63 11/09/2020 08:32:37 72.66, 43.61 89.64 3.43 46
36 11/09/2020 09:24:06 -72.61,-149.07 90.41 11/09/2020 09:23:20 -72.62,-149.16 90.40 2.96 46
37 11/09/2020 10:14:52 72.61, 18.23 89.60 11/09/2020 10:13:59 72.64, 18.23 89.64 3.58 53
38 11/09/2020 11:05:36 -72.61,-174.45 90.39 11/09/2020 11:04:42 -72.60,-174.54 90.40 3.22 54
39 11/09/2020 11:56:22 72.61, -7.15 89.63 11/09/2020 11:55:21 72.62, -7.15 89.64 1.00 61
40 11/09/2020 12:47:06 -72.61, 160.17 90.37 11/09/2020 12:46:03 -72.63, 160.19 90.35 1.60 63
41 11/09/2020 13:37:52 72.62, -32.53 89.65 11/09/2020 13:36:43 72.60, -32.53 89.64 1.58 69
42 11/09/2020 14:28:36 -72.62, 134.78 90.34 11/09/2020 14:27:25 -72.61, 134.81 90.35 1.34 71
43 11/09/2020 15:19:20 72.52, -57.71 89.57 11/09/2020 15:18:06 72.53, -58.01 89.59 10.36 74
44 11/09/2020 16:10:03 -72.47, 109.71 90.48 11/09/2020 16:08:49 -72.49, 109.22 90.45 16.51 74
45 11/09/2020 17:00:44 72.21, -82.48 89.27 11/09/2020 16:59:34 72.20, -84.00 89.30 51.61 70
46 11/09/2020 17:51:27 -72.17, 84.93 90.77 11/09/2020 17:50:17 -72.16, 83.24 90.74 57.59 70
47 11/09/2020 18:42:08 71.91,-107.27 88.98 11/09/2020 18:41:01 71.93,-109.87 89.06 89.53 67
48 11/09/2020 19:32:51 -71.86, 60.13 91.07 11/09/2020 19:31:45 -71.83, 57.28 91.03 98.85 66
